{"data":{"norad_id":63318,"intl_designator":"2025-057M","name":"STARLINK-11593 [DTC]","alt_names":[],"object_type":"PAYLOAD","status":"ACTIVE","operator":null,"country":"US","launch_date":"2025-03-18","launch_site_code":"AFETR","launch_vehicle":null,"mission":null,"orbit_class":"UNKNOWN","rcs_meters":null,"size_class":null,"mass_kg":null,"dimensions":null,"purposes":["comms"],"wikipedia_slug":null,"has_3d_model":false,"image_url":null,"decayed_at":null,"tle_current":{"epoch":"2026-05-25T01:45:45.604800Z","epoch_age_seconds":58976,"freshness":"FRESH","line1":"1 63318U 25057M   26145.07344450  .00209817  00000+0  15930-2 0  9991","line2":"2 63318  42.9998 163.8574 0001808 259.0483 101.0181 15.70910394 69226","mean_motion":15.70910394,"eccentricity":0.0001808,"inclination_deg":42.9998,"raan_deg":163.8574,"arg_perigee_deg":259.0483,"mean_anomaly_deg":101.0181,"bstar":0.001593,"rev_number":6922,"period_min":91.666590627957,"perigee_km":355.07628475414,"apogee_km":357.51145495669,"semimajor_km":6734.4308698554,"source":"CELESTRAK","updated_at":"2026-05-25T13:38:19.958183Z"}}}